Temperature
25 24 23 22 21 22 23 24 26 29 29 29 29 28 26 25 25 22 23 23 23 22 22 21 22 22 22 21 21 21 20 20 20 20 20 21 21 21 20 20 20 20 20 20 20 20 20 20 20
25 24 24 23 22 23 24 24 26 30 30 29 28 27 26 25 24 23 23 23 23 23 22 21 21 22 21 21 21 21 20 20 20 20 20 20 20 20 20 20 20 20 20 20 20 20 20 20 20
25 24 23 22 22 24 25 26 27 31 31 30 28 27 26 24 24 23 23 23 23 23 23 21 21 21 21 21 21 21 20 20 20 20 20 20 20 20 20 20 20 20 20 20 20 20 20 20 20
25 25 24 23 24 25 25 27 28 28 29 29 27 25 25 25 24 24 23 23 23 23 23 22 21 21 21 21 21 20 20 20 20 20 20 20 20 20 20 20 20 20 20 20 20 20 19 19 19
25 24 22 23 26 28 27 27 28 28 27 27 27 24 24 24 24 24 23 23 23 23 22 22 21 21 21 21 21 20 20 20 20 20 20 20 20 20 20 20 20 20 20 20 19 20 19 19 19
25 24 23 24 27 31 29 28 29 28 28 27 25 24 24 23 24 23 23 23 23 23 22 22 21 21 21 21 21 20 20 20 20 20 19 19 19 19 20 20 20 19 19 19 19 19 19 19 19
25 22 24 25 26 30 29 28 28 27 27 27 26 24 23 23 23 23 23 23 22 23 23 22 22 21 21 21 21 21 20 20 20 20 20 20 19 18 19 19 19 19 19 19 19 19 19 19 19
27 23 24 25 28 30 30 29 28 27 25 26 25 24 24 24 23 23 22 23 22 22 23 23 22 22 21 21 21 20 20 21 21 20 20 20 20 20 20 20 19 19 19 19 19 19 19 19 19
27 23 23 26 28 29 30 30 27 26 25 25 26 26 26 24 23 23 22 21 21 21 21 21 22 22 21 21 21 20 20 20 20 20 20 20 20 20 20 20 19 19 19 19 19 19 19 19 19
26 22 24 27 29 30 31 31 30 25 24 24 25 26 26 24 24 23 22 21 21 21 20 21 21 22 21 21 20 21 21 20 21 21 21 21 20 20 19 19 19 19 19 18 18 18 18 18 19
26 25 26 28 30 32 31 32 30 25 24 24 28 26 24 24 24 23 22 22 21 21 21 21 21 21 21 21 20 21 21 21 21 21 21 21 20 20 19 19 19 19 18 18 18 19 19 19 19
26 27 28 30 31 31 31 32 30 28 28 29 29 28 25 24 24 23 23 22 21 21 21 21 20 20 21 20 20 20 20 20 20 21 21 20 20 20 19 19 19 19 18 18 18 18 18 18 19
26 27 30 31 31 31 31 31 30 29 28 27 26 25 25 24 24 24 24 23 22 21 21 21 21 21 20 20 21 20 20 20 20 20 20 20 20 20 19 19 19 18 18 18 18 18 18 18 19
28 29 29 30 30 31 29 30 29 26 26 24 23 23 24 23 24 23 23 23 22 22 21 20 20 20 21 21 20 20 20 20 20 20 20 20 20 19 19 19 19 18 18 18 18 18 18 18 18
29 28 27 28 29 30 29 28 28 25 24 23 23 24 24 23 24 23 23 23 22 22 22 21 21 20 20 21 20 20 20 19 19 19 19 19 19 19 20 19 19 19 19 18 18 18 18 18 18
25 26 25 27 28 28 28 26 26 25 24 22 21 22 22 22 23 23 22 22 22 22 22 22 21 20 20 20 19 19 19 19 19 18 18 18 18 19 19 19 19 19 18 18 18 18 18 18 18
24 24 25 26 28 27 27 26 25 26 25 23 22 21 22 22 22 22 22 21 21 21 21 20 20 19 19 19 18 19 19 19 19 19 19 19 19 19 19 19 18 18 18 18 18 18 18 18 18
24 24 26 26 27 27 27 26 25 25 25 23 21 21 21 21 22 22 22 22 21 20 19 20 20 20 20 19 19 19 19 19 19 19 19 19 19 19 19 19 18 18 18 18 18 18 18 18 18
25 26 26 26 27 26 26 26 26 26 23 20 20 21 21 22 22 21 21 21 20 20 20 20 20 19 19 19 19 19 18 18 18 18 19 18 18 18 18 18 18 18 18 18 18 18 18 18 18
27 25 25 26 26 26 25 25 24 23 22 20 20 21 21 21 22 21 21 20 20 20 19 19 19 19 19 19 18 18 18 18 18 18 18 18 17 18 18 18 18 17 17 17 17 17 18 18 18
25 24 24 24 24 25 25 22 21 20 21 21 22 22 21 21 20 20 21 21 21 21 20 20 20 20 19 19 18 18 18 18 17 17 17 18 18 18 17 17 17 17 17 17 17 17 17 17 17
24 25 25 25 23 21 23 20 20 19 20 21 21 21 21 21 21 21 22 22 22 21 21 20 20 20 19 19 18 18 17 16 16 16 16 17 17 17 17 17 16 16 16 16 17 17 16 16 16
25 25 24 24 23 22 21 20 20 19 19 19 20 21 21 22 22 22 23 23 22 21 21 20 20 19 19 18 18 17 16 16 16 16 16 16 17 17 17 16 16 16 16 16 16 16 16 16 15
25 23 22 19 19 20 21 21 20 19 19 19 19 21 22 22 22 23 23 22 22 21 20 20 19 19 19 18 17 16 16 16 15 16 16 16 16 16 16 16 16 15 16 16 16 16 15 15 15
23 21 19 19 19 20 20 20 20 20 20 20 19 21 22 23 23 23 22 22 22 21 20 20 19 19 19 18 17 16 16 15 15 16 15 15 15 15 14 15 15 15 15 15 15 15 15 14 14
24 20 19 19 19 18 20 19 21 21 22 22 23 23 23 24 23 23 22 22 21 21 20 20 19 19 18 18 17 17 16 15 15 15 14 14 14 13 13 13 14 15 15 14 15 15 14 14 14
23 22 21 20 19 18 20 22 22 21 20 21 22 23 23 23 22 22 23 22 21 21 20 20 19 19 18 17 16 16 15 15 14 14 13 13 13 13 13 13 13 14 14 14 14 14 13 13 14
23 23 18 20 19 18 20 20 20 21 20 20 19 21 22 22 22 23 22 22 21 21 20 20 19 19 17 16 16 16 15 14 14 13 13 12 12 13 13 12 13 13 14 14 13 13 13 13 13
23 22 21 20 19 18 18 19 20 21 20 19 21 22 22 22 22 22 22 21 21 21 20 20 20 19 17 16 16 15 14 14 13 12 13 12 12 12 12 12 12 13 13 13 13 13 13 13 13
22 22 20 19 19 18 18 18 20 21 21 21 21 21 22 22 22 22 21 21 21 20 20 20 20 18 17 16 15 15 14 14 13 12 12 12 12 12 12 12 12 12 12 13 13 13 12 13 12
Wind_Speed
4 1 1 2 3 4 2 4 4 2 4 5 8 11 8 5 3 2 6 13 19 16 16 20 24 24 22 21 19 17 15 14 13 13 13 13 13 13 12 11 11 11 10 9 9 8 8 9 8
4 0 0 2 4 4 3 5 4 1 5 11 11 10 7 5 6 9 8 13 19 15 15 17 23 23 21 21 20 18 17 16 14 13 12 12 12 12 11 10 10 9 9 9 8 8 7 7 6
4 2 2 2 2 4 4 5 6 2 7 8 6 7 6 4 9 11 11 16 16 12 14 17 23 22 21 20 20 19 18 17 16 14 13 12 11 10 10 9 9 8 7 7 7 7 7 7 6
3 2 2 2 3 5 4 3 3 6 9 6 7 6 4 3 11 13 18 18 16 12 14 19 22 21 21 20 20 19 18 18 16 15 13 12 11 10 9 10 10 9 8 8 7 7 7 7 7
1 2 3 1 6 6 9 2 2 7 4 5 6 7 4 4 18 21 18 17 16 11 11 18 20 21 21 20 19 18 18 18 17 15 13 12 12 12 11 10 10 10 10 9 9 9 9 9 9
1 2 3 4 5 6 6 11 7 3 7 7 10 9 3 11 19 18 17 16 16 14 10 14 19 19 20 20 20 20 19 18 17 15 13 12 10 10 13 12 12 11 11 10 10 10 11 11 11
2 2 3 6 7 2 5 8 9 7 11 6 6 6 5 7 16 17 15 15 14 13 11 10 15 18 20 21 21 21 20 20 19 17 15 13 12 11 12 13 13 13 12 12 12 12 12 12 13
4 3 4 7 8 7 3 5 6 10 6 4 4 7 6 8 15 15 14 13 13 13 12 7 9 12 13 16 20 21 20 20 19 18 17 15 13 12 12 13 13 14 15 15 15 15 15 15 15
2 3 2 5 6 8 7 7 5 3 7 4 6 9 17 13 15 17 14 10 10 10 10 9 7 8 9 10 14 17 18 18 18 16 15 14 12 12 12 13 14 16 17 17 17 18 18 18 17
3 3 6 6 4 5 9 7 5 6 5 3 4 11 17 17 16 18 16 13 10 9 9 9 8 6 7 8 9 10 12 12 12 12 13 13 13 13 12 13 16 18 18 19 20 20 20 17 13
5 7 9 10 6 3 6 8 5 9 3 8 10 13 16 15 13 13 13 16 15 12 10 9 8 6 6 4 6 7 9 9 11 12 13 12 10 10 11 10 12 14 16 14 15 16 15 13 11
4 10 8 7 2 3 3 3 1 8 9 12 13 17 17 15 14 13 12 11 13 13 12 12 11 9 7 7 7 7 7 8 9 12 14 11 6 5 6 5 7 9 10 8 8 7 10 12 13
6 7 7 5 5 3 3 5 4 5 8 11 11 12 17 18 15 13 12 11 12 12 12 14 14 12 12 9 8 8 9 9 12 13 15 14 7 8 6 6 8 9 10 9 7 7 7 8 10
6 5 6 6 8 6 5 8 4 9 19 15 12 8 10 8 8 7 9 9 11 12 10 12 16 15 13 11 10 10 9 11 11 11 13 15 12 8 9 9 7 8 10 10 7 7 8 10 9
8 6 9 9 8 7 3 8 3 18 22 20 16 13 13 12 11 7 6 9 12 13 12 13 15 15 14 14 12 7 6 7 6 8 11 14 16 13 9 9 9 8 10 8 6 5 5 6 6
7 5 6 11 5 8 8 7 8 19 22 20 18 16 16 12 11 8 7 4 4 5 5 5 5 8 10 7 5 4 3 4 4 6 7 11 14 15 8 9 7 6 6 5 6 5 4 5 5
6 5 9 13 10 7 8 7 10 10 19 16 16 15 14 11 8 5 5 5 4 3 4 3 2 2 4 5 6 5 4 4 5 6 6 8 10 11 7 8 7 6 5 6 5 5 4 4 5
6 6 5 7 9 6 6 7 11 12 19 17 15 13 12 10 8 7 6 6 5 4 3 1 3 3 3 3 3 2 4 4 5 4 5 7 8 10 6 7 7 6 6 7 5 6 6 5 5
6 3 4 6 9 8 7 5 6 9 12 16 13 12 11 8 5 3 3 4 3 1 0 3 3 1 1 1 1 2 4 4 5 6 6 6 7 8 7 7 7 8 10 11 9 6 6 6 4
2 4 4 5 10 8 8 7 8 5 13 17 13 10 8 6 4 3 2 2 0 2 2 1 1 3 1 2 3 4 4 5 5 6 7 8 8 8 7 8 8 8 7 8 9 6 4 4 6
5 4 3 3 4 5 7 7 10 8 15 13 8 8 8 8 6 5 4 4 4 2 3 5 5 5 5 4 3 3 4 5 4 5 6 7 7 8 9 9 9 10 9 10 10 9 10 8 6
3 1 4 5 4 1 4 1 1 6 8 8 9 7 8 8 9 8 8 8 8 8 8 8 8 8 7 7 4 4 4 4 5 5 6 9 10 10 10 10 11 11 9 9 10 10 9 9 8
2 1 5 3 5 4 2 4 4 5 5 6 4 4 6 9 11 12 12 11 10 9 9 8 8 8 9 8 6 3 3 4 4 6 9 11 11 11 11 10 10 11 10 10 9 9 10 10 10
3 7 9 7 4 3 4 3 5 6 6 4 4 6 8 9 11 12 11 8 7 6 7 7 5 7 7 4 2 2 2 4 5 8 9 10 11 12 13 10 9 10 9 9 9 9 10 10 10
7 6 5 7 5 4 4 3 7 7 8 9 11 12 12 10 9 9 10 7 6 6 8 6 4 6 5 5 4 5 4 3 3 6 8 12 12 13 13 10 8 8 9 8 8 7 7 7 8
4 7 5 2 4 6 3 5 6 5 9 12 13 12 12 10 8 8 9 7 6 7 6 5 7 7 6 7 7 7 4 2 2 5 8 10 11 12 12 10 8 6 6 6 7 7 7 7 9
4 3 6 5 1 2 3 1 3 4 2 6 10 10 10 9 7 9 9 9 8 7 5 6 8 8 8 5 5 5 3 1 3 5 7 9 10 9 8 7 6 4 4 6 6 7 8 8 8
5 4 3 3 1 3 6 4 6 9 12 13 10 8 8 5 4 4 6 7 6 5 3 5 8 8 7 7 7 6 5 2 1 4 7 8 10 10 9 9 7 3 1 3 5 5 5 5 5
0 1 3 3 3 3 4 7 8 11 13 13 9 7 5 4 4 6 7 8 8 7 5 4 4 4 5 7 7 7 6 4 2 3 5 7 8 8 8 9 8 5 4 3 1 2 3 3 3
6 5 5 4 5 4 4 9 9 3 1 6 6 4 2 4 5 5 7 8 7 7 5 5 5 6 7 9 8 6 6 5 4 3 4 6 7 8 7 8 10 9 7 5 3 4 4 3 3
Wind_Direction
283 247 304 323 43 58 3 278 271 316 50 65 74 89 92 79 107 133 119 136 134 142 156 160 157 158 156 151 146 147 146 144 141 138 136 134 132 130 129 131 133 136 136 133 129 126 122 119 117
300 1 89 4 66 50 300 273 276 4 101 114 101 96 77 63 84 119 115 134 135 139 147 157 157 159 156 151 149 153 157 158 157 155 152 148 146 145 145 146 146 148 148 149 147 144 140 138 136
286 138 90 47 108 171 225 239 251 242 128 133 98 67 68 85 123 134 135 135 131 134 140 153 155 158 156 154 155 158 163 165 167 168 166 163 163 163 163 163 162 162 162 165 165 163 161 165 169
296 360 66 100 256 214 207 290 271 30 16 51 95 66 44 128 136 135 134 135 134 135 140 148 152 158 159 159 161 164 166 169 172 176 177 176 176 175 176 181 180 179 179 185 187 186 188 191 197
327 21 17 343 249 227 194 227 314 87 60 27 89 87 46 60 118 131 137 141 137 135 140 148 150 156 161 163 165 168 170 173 177 181 184 187 190 185 183 193 194 195 197 202 205 201 200 204 206
357 32 4 292 283 271 181 179 160 102 121 117 107 113 102 129 130 141 144 148 146 144 142 146 155 157 159 163 168 173 176 178 181 185 188 194 205 195 188 198 208 214 218 217 218 221 209 211 214
160 95 259 285 289 314 145 167 139 124 59 63 116 105 136 149 146 149 146 144 144 145 147 150 158 165 167 169 171 176 180 182 184 186 188 195 207 213 205 205 216 223 226 225 226 220 219 219 220
152 113 323 313 331 1 35 144 108 112 122 127 130 135 161 180 145 140 137 141 143 151 156 152 161 170 174 177 178 180 185 189 190 189 192 196 200 207 211 214 219 224 228 230 229 229 228 225 224
110 78 280 292 326 330 355 69 114 85 106 107 153 162 149 158 128 134 139 142 144 158 161 160 166 174 175 178 189 188 194 198 197 197 201 203 206 213 216 219 223 226 229 232 233 234 234 231 229
140 170 226 218 275 318 341 11 99 121 87 85 156 124 136 146 141 147 152 156 165 169 171 171 173 172 177 193 204 199 205 203 203 203 205 208 207 214 223 227 231 233 234 234 235 235 238 240 234
186 208 246 268 264 291 330 345 68 125 177 200 178 153 153 146 155 158 161 166 175 175 174 180 183 177 183 205 197 203 215 211 208 208 211 216 218 222 226 224 230 232 235 234 234 238 240 239 232
245 259 241 242 265 324 290 314 296 165 192 188 181 160 154 159 173 175 172 167 165 175 181 181 184 184 194 201 196 204 212 212 211 214 215 217 221 223 227 226 221 222 227 223 217 225 232 235 230
232 264 276 292 327 297 316 295 280 126 120 108 137 165 167 176 182 180 174 170 160 176 186 184 184 190 197 199 200 202 209 211 215 214 218 218 219 224 219 219 214 211 211 215 215 225 234 239 238
281 293 304 314 304 307 309 311 13 111 114 120 135 149 163 159 172 160 163 161 166 180 189 181 189 196 199 202 205 208 209 216 216 216 217 217 223 231 229 226 216 212 211 215 217 218 227 232 232
298 303 318 295 287 287 4 314 94 130 126 120 119 117 120 96 88 90 143 173 179 181 187 186 188 197 202 207 209 206 212 216 217 226 227 223 227 231 230 226 225 219 212 209 212 226 223 233 229
353 353 308 281 258 249 169 225 153 143 129 126 127 122 112 99 87 80 84 122 166 183 190 170 186 197 208 228 254 262 265 264 247 246 243 244 237 231 232 230 229 235 219 196 202 206 218 228 227
356 300 285 292 283 219 164 175 169 154 124 132 128 123 116 106 98 109 111 95 94 93 96 110 68 314 251 241 255 267 264 274 282 283 260 256 260 249 241 239 232 230 229 220 211 205 202 221 230
260 278 283 305 330 92 107 127 165 176 141 137 122 120 118 131 153 160 141 135 128 129 118 216 193 209 177 188 242 274 298 291 282 278 279 279 270 263 247 241 226 216 231 234 216 210 202 208 212
235 291 7 345 351 49 45 79 135 188 144 119 118 123 134 148 154 160 102 91 91 40 210 235 255 258 175 268 298 284 269 266 273 279 275 287 283 269 254 252 235 219 224 232 221 209 207 212 181
327 33 26 351 360 37 29 33 30 53 137 132 130 134 142 142 166 194 96 13 99 90 28 76 233 275 234 209 231 240 249 260 263 272 282 285 282 274 250 247 246 233 226 229 221 205 195 213 177
28 71 41 14 349 33 43 17 20 53 107 124 137 138 141 157 183 202 180 229 249 210 209 193 218 223 206 205 229 290 309 309 309 302 296 291 277 273 267 249 240 238 225 228 224 207 213 231 208
329 49 44 7 30 332 98 200 351 155 133 155 157 158 156 166 171 188 187 195 199 197 197 205 214 218 218 213 213 240 257 275 279 283 287 291 290 285 277 267 252 240 225 224 225 211 218 223 231
271 3 46 356 342 310 209 148 225 224 188 190 165 163 191 185 173 193 203 206 207 202 204 210 220 224 225 221 218 240 281 291 308 322 322 312 302 288 276 263 261 246 228 224 220 216 214 213 220
62 31 12 15 42 322 265 161 248 217 211 199 205 206 210 201 200 214 225 222 225 229 223 227 231 239 238 224 178 108 58 12 354 338 326 317 309 299 287 270 260 246 223 212 219 215 212 215 215
56 57 20 2 8 277 233 158 258 243 212 190 188 216 232 230 225 234 243 236 227 229 234 250 220 216 196 162 134 124 115 78 355 322 323 316 309 300 287 276 268 250 228 208 201 197 203 213 216
108 121 144 180 256 280 263 217 250 231 178 179 192 212 231 242 243 243 240 224 217 218 226 212 196 209 192 175 157 145 135 101 352 328 315 313 310 303 291 279 274 257 237 210 194 210 213 218 226
109 157 156 148 259 307 288 257 281 274 265 196 203 220 244 259 243 230 216 193 190 194 187 192 206 218 202 178 132 134 149 96 7 334 326 328 324 328 330 317 301 285 240 217 205 221 223 216 219
121 141 64 40 55 316 291 267 212 200 222 224 219 225 240 241 213 204 178 170 179 183 174 191 212 213 196 174 172 169 178 154 359 327 332 331 329 338 349 343 337 331 285 204 212 223 217 198 193
156 97 111 133 151 185 282 278 225 210 214 209 196 169 166 182 208 211 206 199 189 180 171 184 201 206 189 196 193 181 184 186 234 299 316 319 322 336 355 4 347 343 335 291 192 175 107 117 88
181 181 144 156 236 197 219 270 280 254 240 140 129 93 32 333 312 273 230 205 195 198 194 176 175 188 195 204 211 209 205 205 223 266 293 301 318 337 358 13 16 11 23 26 56 75 95 120 144
Height
1516 1514 1515 1515 1519 1522 1525 1518 1508 1498 1495 1496 1496 1498 1503 1508 1513 1522 1518 1518 1523 1526 1528 1530 1532 1533 1535 1537 1539 1542 1544 1546 1547 1547 1548 1549 1550 1550 1550 1551 1551 1552 1553 1554 1555 1555 1556 1557 1558
1517 1516 1517 1516 1524 1534 1529 1514 1506 1498 1497 1498 1500 1502 1505 1509 1511 1513 1516 1520 1523 1526 1528 1531 1533 1534 1536 1538 1539 1541 1543 1544 1546 1547 1548 1549 1550 1550 1550 1551 1551 1552 1553 1553 1554 1555 1556 1557 1558
1517 1515 1519 1519 1526 1530 1522 1508 1501 1497 1497 1497 1501 1503 1508 1512 1513 1515 1517 1519 1523 1525 1528 1531 1534 1535 1537 1538 1539 1541 1542 1543 1545 1547 1548 1549 1549 1550 1550 1551 1552 1552 1553 1554 1554 1555 1556 1557 1557
1517 1516 1519 1524 1527 1513 1510 1504 1499 1497 1498 1499 1502 1508 1512 1514 1514 1516 1519 1521 1523 1524 1527 1529 1533 1535 1537 1538 1539 1541 1542 1543 1545 1547 1548 1549 1549 1549 1549 1550 1551 1552 1553 1554 1554 1555 1556 1556 1557
1517 1517 1523 1527 1517 1503 1499 1503 1498 1497 1501 1504 1503 1510 1514 1515 1514 1517 1520 1523 1524 1525 1526 1529 1531 1534 1536 1537 1539 1541 1542 1543 1544 1546 1548 1548 1549 1549 1549 1550 1551 1551 1552 1553 1554 1554 1554 1555 1555
1519 1518 1529 1531 1516 1495 1493 1498 1495 1491 1497 1504 1505 1510 1516 1515 1514 1516 1519 1522 1524 1525 1527 1529 1532 1534 1535 1536 1538 1539 1541 1542 1543 1545 1546 1547 1548 1548 1548 1549 1550 1550 1551 1552 1552 1553 1554 1554 1554
1520 1523 1527 1521 1513 1500 1496 1497 1491 1494 1501 1505 1508 1512 1516 1517 1516 1517 1519 1522 1523 1524 1526 1528 1530 1533 1535 1536 1536 1538 1539 1540 1541 1543 1544 1545 1546 1547 1547 1548 1549 1550 1550 1551 1551 1552 1553 1553 1553
1517 1521 1525 1519 1509 1501 1494 1495 1495 1495 1500 1504 1506 1509 1515 1517 1516 1518 1520 1522 1523 1524 1525 1528 1530 1531 1533 1534 1535 1536 1537 1539 1540 1541 1542 1543 1544 1545 1546 1546 1547 1548 1549 1549 1550 1550 1551 1551 1551
1515 1524 1530 1519 1510 1501 1494 1496 1499 1499 1497 1499 1500 1500 1504 1515 1516 1517 1519 1522 1522 1523 1524 1525 1528 1529 1530 1532 1534 1535 1536 1537 1538 1539 1541 1542 1543 1544 1544 1545 1546 1546 1546 1547 1547 1548 1548 1548 1547
1513 1525 1520 1509 1505 1500 1494 1494 1497 1501 1498 1499 1502 1500 1502 1509 1515 1516 1517 1520 1522 1523 1524 1524 1526 1527 1528 1530 1532 1533 1535 1535 1536 1537 1538 1540 1541 1542 1542 1543 1543 1543 1544 1544 1545 1545 1545 1544 1544
1509 1513 1506 1504 1502 1499 1495 1493 1495 1497 1500 1496 1496 1499 1505 1509 1516 1517 1517 1518 1521 1524 1525 1526 1528 1529 1529 1530 1532 1533 1534 1535 1535 1536 1537 1538 1539 1540 1539 1539 1540 1540 1541 1541 1542 1542 1542 1541 1541
1507 1501 1500 1500 1498 1497 1495 1494 1494 1495 1493 1494 1497 1499 1504 1510 1514 1516 1517 1519 1521 1524 1526 1528 1529 1529 1530 1531 1532 1533 1534 1534 1535 1535 1535 1536 1536 1537 1537 1537 1537 1538 1538 1539 1539 1540 1540 1539 1539
1503 1498 1495 1493 1493 1493 1494 1493 1491 1493 1493 1497 1501 1505 1506 1509 1513 1515 1516 1519 1521 1523 1525 1526 1528 1528 1528 1530 1531 1531 1532 1533 1533 1534 1534 1534 1534 1534 1534 1534 1534 1534 1534 1535 1535 1536 1536 1536 1536
1499 1495 1492 1490 1490 1490 1492 1490 1492 1495 1495 1499 1504 1508 1512 1514 1515 1515 1516 1518 1519 1522 1524 1524 1523 1524 1526 1527 1528 1528 1529 1530 1531 1531 1531 1532 1531 1531 1531 1530 1529 1529 1529 1530 1530 1531 1532 1532 1532
1497 1494 1492 1489 1488 1489 1493 1495 1493 1495 1497 1501 1505 1508 1511 1513 1514 1515 1517 1519 1520 1521 1523 1523 1522 1522 1523 1523 1524 1525 1527 1528 1528 1528 1528 1528 1527 1526 1525 1525 1524 1524 1524 1524 1525 1525 1526 1526 1527
1499 1502 1507 1491 1487 1487 1497 1507 1495 1496 1498 1503 1507 1508 1509 1512 1514 1516 1517 1519 1520 1520 1520 1520 1521 1521 1522 1522 1522 1524 1526 1526 1526 1525 1526 1525 1523 1521 1520 1521 1520 1521 1520 1519 1520 1519 1519 1520 1520
1511 1518 1510 1496 1479 1482 1490 1499 1495 1494 1494 1500 1505 1508 1509 1512 1515 1517 1517 1518 1518 1519 1519 1519 1520 1521 1522 1521 1522 1522 1521 1521 1521 1521 1521 1520 1518 1516 1514 1513 1514 1515 1515 1514 1514 1514 1513 1513 1514
1521 1515 1508 1502 1486 1482 1489 1494 1494 1493 1491 1496 1502 1506 1508 1512 1514 1516 1516 1516 1516 1516 1518 1518 1518 1518 1518 1518 1518 1517 1516 1516 1516 1514 1513 1514 1513 1511 1509 1508 1508 1510 1510 1508 1508 1507 1506 1507 1507
1507 1507 1508 1500 1489 1492 1497 1497 1497 1496 1497 1499 1502 1505 1507 1510 1512 1514 1514 1513 1514 1515 1515 1516 1516 1515 1515 1515 1514 1513 1512 1511 1510 1509 1507 1506 1506 1505 1504 1502 1502 1502 1501 1500 1502 1501 1500 1500 1501
1502 1508 1508 1502 1493 1494 1499 1502 1500 1497 1500 1503 1506 1506 1508 1510 1512 1515 1514 1514 1513 1512 1513 1513 1513 1512 1512 1512 1511 1510 1508 1507 1506 1504 1502 1500 1499 1497 1496 1495 1494 1494 1492 1492 1492 1492 1492 1492 1494
1507 1510 1510 1510 1501 1498 1502 1513 1509 1505 1504 1507 1508 1508 1509 1512 1515 1515 1513 1513 1513 1511 1510 1511 1510 1510 1510 1509 1508 1506 1504 1502 1500 1498 1495 1493 1492 1490 1488 1486 1485 1484 1484 1483 1484 1484 1483 1484 1484
1511 1502 1500 1502 1510 1519 1513 1535 1522 1512 1508 1506 1504 1505 1507 1510 1512 1513 1510 1509 1509 1508 1507 1507 1506 1505 1505 1504 1503 1501 1500 1497 1495 1492 1489 1487 1485 1483 1480 1478 1476 1475 1475 1475 1475 1475 1475 1475 1475
1503 1497 1499 1501 1506 1515 1515 1526 1523 1515 1512 1507 1506 1507 1508 1509 1507 1508 1506 1504 1505 1504 1504 1503 1502 1501 1500 1499 1498 1497 1495 1493 1490 1487 1484 1480 1477 1474 1471 1469 1468 1467 1466 1467 1468 1468 1468 1467 1468
1497 1500 1504 1511 1519 1531 1518 1520 1524 1515 1510 1508 1506 1505 1506 1504 1503 1503 1502 1501 1502 1501 1501 1501 1499 1498 1496 1495 1494 1493 1491 1489 1486 1482 1478 1473 1468 1463 1459 1459 1459 1459 1459 1459 1460 1461 1461 1461 1461
1502 1518 1536 1539 1541 1535 1518 1522 1519 1501 1498 1497 1500 1501 1500 1499 1500 1499 1499 1498 1499 1499 1498 1498 1497 1495 1493 1492 1491 1490 1488 1485 1482 1478 1473 1467 1461 1455 1449 1448 1451 1452 1452 1453 1454 1454 1454 1455 1456
1504 1520 1542 1551 1549 1540 1521 1525 1510 1493 1491 1492 1494 1495 1496 1496 1496 1496 1496 1496 1497 1497 1496 1495 1494 1492 1490 1489 1488 1487 1485 1482 1479 1474 1469 1464 1457 1452 1446 1444 1446 1447 1447 1447 1448 1449 1448 1449 1450
1510 1514 1513 1527 1533 1541 1527 1511 1502 1496 1494 1492 1491 1491 1491 1492 1492 1492 1492 1491 1493 1493 1493 1492 1491 1489 1487 1485 1484 1483 1481 1479 1475 1470 1466 1460 1455 1451 1448 1445 1444 1444 1444 1444 1444 1442 1442 1443 1445
1502 1505 1525 1528 1544 1550 1530 1522 1513 1500 1497 1490 1488 1488 1489 1491 1491 1490 1490 1490 1490 1490 1490 1489 1488 1485 1484 1481 1480 1479 1477 1475 1472 1468 1465 1460 1455 1451 1448 1445 1444 1443 1442 1441 1440 1440 1441 1442 1443
1505 1508 1512 1522 1529 1544 1546 1529 1495 1489 1485 1486 1486 1487 1490 1492 1492 1491 1490 1488 1487 1487 1487 1487 1485 1482 1481 1479 1477 1475 1473 1471 1469 1466 1463 1459 1455 1452 1450 1447 1444 1443 1442 1440 1439 1438 1439 1440 1441
1500 1506 1513 1529 1528 1529 1534 1525 1485 1484 1483 1486 1490 1492 1493 1493 1492 1490 1488 1485 1484 1484 1484 1483 1481 1479 1478 1477 1475 1471 1470 1467 1466 1464 1462 1459 1456 1453 1450 1448 1446 1444 1442 1441 1439 1437 1440 1443 1445